Location: Cluny
(50.9333°N, 112.8167°W)
Time: 15:54:38
(UTC-06:00)

Amateur Radio Satellites - All Passes

Search period start: 30 September 2014 15:24
Search period end: 01 October 2014 15:24
Location: Cluny, 50.9333°N, 112.8167°W

Satellite Date Start Highest point End Downlink Frequencies (MHz)
Time Altitude Azimuth
MaSat-1 30 Sep 15:28:05 15:31:47 76° 56° (ENE) 15:34:56 437.345 MHz
TMSAT-1 30 Sep 15:28:18 15:33:36 85° 73° (ENE) 15:38:56 436.925 FM
Oscar 19 30 Sep 15:31:07 15:34:52 20° 271° (W) 15:38:38 437.125 CW, 437.150 USB
ITAMSAT 1 30 Sep 15:40:12 15:44:51 33° 265° (W) 15:49:33 435.822 SSB
Uribyol 2 30 Sep 15:41:21 15:45:56 31° 265° (W) 15:50:33 436.500 FM
JAS-1B 30 Sep 15:42:45 15:49:20 34° 264° (W) 15:55:03 435.800 - 435.900 CW/SSB
Uosat F 30 Sep 16:06:58 16:11:37 40° 65° (ENE) 16:16:17 435.120 FM
Sapphire 30 Sep 16:12:02 16:15:25 16° 14° (NNE) 16:18:47 437.095 MHz 1200 baud AX-25 AFSK
AO-27 30 Sep 16:20:26 16:23:40 17° 272° (W) 16:26:55 436.795 MHz FM
Oscar 10/S400 30 Sep 16:26:28 16:41:10 26° 147° (SSE) 17:04:29 145.825 - 145.975 CW/USB, Beacon 145.810 USB
AO-Echo 30 Sep 16:29:33 16:30:30 11° 276° (W) 16:31:27 ?
PCSat 30 Sep 16:37:51 16:41:42 19° 21° (NNE) 16:45:33 145.825 MHz
Gurwin Techsat 1B 30 Sep 16:40:56 16:44:58 22° 270° (W) 16:49:02 435.225 FM
Saudisat 1A 30 Sep 16:41:53 16:46:08 45° 320° (NW) 16:50:24 436.775 MHz
AO-7 30 Sep 16:45:21 16:53:40 83° 251° (WSW) 17:02:01 29.400 - 29.500 MHz
JAS-2 30 Sep 17:07:08 17:11:34 29° 58° (ENE) 17:16:17 435.800 - 435.900 CW/SSB, 435.910 FM
TMSAT-1 30 Sep 17:10:54 17:14:14 17° 273° (W) 17:17:35 436.925 FM
Hamsat 30 Sep 17:19:56 17:23:21 23° 63° (ENE) 17:26:45 145.90 MHz
KITSAT 1 30 Sep 17:40:30 17:47:51 40° 112° (ESE) 17:55:12 435.175 FM
Uosat F 30 Sep 17:45:57 17:50:29 34° 264° (W) 17:55:02 435.120 FM
OPAL 30 Sep 17:46:39 17:50:52 25° 95° (E) 17:55:00 ?
Sapphire 30 Sep 17:55:27 18:00:27 36° 39° (NE) 18:05:27 437.095 MHz 1200 baud AX-25 AFSK
SO-67 30 Sep 18:20:21 18:21:41 12° 60° (ENE) 18:23:02 435.3500 MHz FM
PCSat 30 Sep 18:21:05 18:26:24 51° 45° (NE) 18:31:41 145.825 MHz
Saudisat 1A 30 Sep 18:23:47 18:26:45 17° 343° (NNW) 18:29:43 436.775 MHz
AO-7 30 Sep 18:41:45 18:47:44 22° 272° (W) 18:53:45 29.400 - 29.500 MHz
STRAND 1 30 Sep 18:50:09 18:50:35 10° 83° (E) 18:51:01 ?
JAS-2 30 Sep 18:51:23 18:56:26 51° 261° (W) 19:01:51 435.800 - 435.900 CW/SSB, 435.910 FM
Hamsat 30 Sep 18:54:52 18:59:04 48° 261° (W) 19:03:15 145.90 MHz
OPAL 30 Sep 19:25:04 19:30:06 56° 294° (WNW) 19:35:01 ?
KITSAT 1 30 Sep 19:34:52 19:42:55 66° 315° (NW) 19:51:01 435.175 FM
Sapphire 30 Sep 19:38:50 19:44:11 58° 240° (WSW) 19:49:29 437.095 MHz 1200 baud AX-25 AFSK
HO-68 30 Sep 19:43:01 19:48:44 27° 50° (NE) 19:54:28 435.675 MHz FM
SO-67 30 Sep 19:50:47 19:54:13 70° 258° (WSW) 19:57:41 435.3500 MHz FM
SO-50 30 Sep 19:52:59 19:56:36 24° 116° (ESE) 20:00:19 436.795 FM
PCSat 30 Sep 20:04:47 20:09:42 36° 246° (WSW) 20:14:35 145.825 MHz
Saudisat 1A 30 Sep 20:05:29 20:08:00 15° 8° (N) 20:10:31 436.775 MHz
STRAND 1 30 Sep 20:25:40 20:30:48 65° 102° (ESE) 20:35:55 ?
OPAL 30 Sep 21:05:56 21:07:56 12° 315° (NW) 21:09:57 ?
Oscar 11 30 Sep 21:11:39 21:15:08 24° 62° (ENE) 21:18:37 145.825 FM, Beacon 2401.500 USB
HO-68 30 Sep 21:28:33 21:35:43 86° 252° (WSW) 21:42:57 435.675 MHz FM
SO-50 30 Sep 21:32:19 21:36:49 62° 316° (NW) 21:41:28 436.795 FM
KITSAT 1 30 Sep 21:32:49 21:39:53 32° 342° (NNW) 21:46:58 435.175 FM
FUNcube-1 30 Sep 21:35:08 21:38:28 20° 59° (ENE) 21:41:50 145.950 - 145.970 MHz USB
UKube-1 30 Sep 21:39:51 21:44:04 53° 69° (ENE) 21:48:20 145.840 MHz, 145.915 MHz
Saudisat 1A 30 Sep 21:45:04 21:48:57 29° 31° (NNE) 21:52:48 436.775 MHz
UOSAT-12 30 Sep 22:02:03 22:06:20 38° 121° (ESE) 22:10:42 437.025 FM, 437.400 FM
STRAND 1 30 Sep 22:05:34 22:09:36 24° 302° (WNW) 22:13:38 ?
AO-40 30 Sep 22:08:38 00:41:46 23° 201° (SSW) 04:36:27 Beacon 2401.320
ZACube-1 30 Sep 22:18:56 22:23:17 45° 68° (ENE) 22:27:43 437.345 MHz
ISS 30 Sep 22:41:04 22:41:56 11° 136° (SE) 22:42:48 145.800 FM
Oscar 11 30 Sep 22:46:51 22:51:05 48° 261° (W) 22:55:20 145.825 FM, Beacon 2401.500 USB
FUNcube-1 30 Sep 23:09:53 23:14:25 65° 258° (WSW) 23:19:02 145.950 - 145.970 MHz USB
SO-50 30 Sep 23:14:45 23:18:16 21° 339° (NNW) 23:21:52 436.795 FM
UKube-1 30 Sep 23:17:23 23:20:36 20° 268° (W) 23:23:50 145.840 MHz, 145.915 MHz
HO-68 30 Sep 23:19:25 23:24:28 20° 273° (W) 23:29:33 435.675 MHz FM
Saudisat 1A 30 Sep 23:24:29 23:28:54 67° 233° (SW) 23:33:16 436.775 MHz
KITSAT 1 30 Sep 23:31:02 23:37:55 29° 11° (NNE) 23:44:46 435.175 FM
UOSAT-12 30 Sep 23:41:58 23:46:28 45° 321° (NW) 23:51:02 437.025 FM, 437.400 FM
ZACube-1 30 Sep 23:56:04 23:59:53 26° 268° (W) 00:03:47 437.345 MHz
ISS 01 Oct 00:14:47 00:17:59 44° 154° (SSE) 00:21:11 145.800 FM
SO-50 01 Oct 00:57:38 01:00:31 16° 4° (N) 01:03:26 436.795 FM
Saudisat 1A 01 Oct 01:06:45 01:07:38 11° 251° (WSW) 01:08:31 436.775 MHz
RS-15 01 Oct 01:18:46 01:24:19 16° 95° (E) 01:29:50 29.354 - 29.394 USB, Beacon 29.352 USB
UOSAT-12 01 Oct 01:24:25 01:27:45 19° 344° (NNW) 01:31:06 437.025 FM, 437.400 FM
KITSAT 1 01 Oct 01:27:19 01:35:14 53° 39° (NE) 01:43:06 435.175 FM
ISS 01 Oct 01:51:15 01:54:36 80° 354° (N) 01:57:56 145.800 FM
Oscar 19 01 Oct 01:57:25 02:00:46 17° 88° (E) 02:04:05 437.125 CW, 437.150 USB
Uribyol 2 01 Oct 02:11:43 02:12:42 11° 83° (E) 02:13:42 436.500 FM
Oscar 16 01 Oct 02:37:34 02:42:21 37° 96° (E) 02:47:05 437.025 USB, Beacon 2401.1428
SO-50 01 Oct 02:38:33 02:42:36 27° 28° (NNE) 02:46:42 436.795 FM
AO-27 01 Oct 02:46:54 02:50:49 21° 90° (E) 02:54:42 436.795 MHz FM
AO-Echo 01 Oct 02:48:11 02:52:17 25° 93° (E) 02:56:27 ?
UOSAT-12 01 Oct 03:06:34 03:09:37 17° 9° (N) 03:12:40 437.025 FM, 437.400 FM
Gurwin Techsat 1B 01 Oct 03:11:15 03:14:52 18° 88° (E) 03:18:28 435.225 FM
JAS-1B 01 Oct 03:20:16 03:25:45 48° 100° (E) 03:31:30 435.800 - 435.900 CW/SSB
KITSAT 1 01 Oct 03:22:58 03:30:46 54° 243° (WSW) 03:38:32 435.175 FM
RS-15 01 Oct 03:23:26 03:34:06 60° 119° (ESE) 03:44:44 29.354 - 29.394 USB, Beacon 29.352 USB
ISS 01 Oct 03:28:01 03:31:22 84° 193° (SSW) 03:34:42 145.800 FM
OPAL 01 Oct 03:29:54 03:33:07 17° 50° (NE) 03:36:20 ?
Oscar 19 01 Oct 03:35:35 03:40:46 80° 287° (WNW) 03:45:53 437.125 CW, 437.150 USB
TMSAT-1 01 Oct 03:39:34 03:43:48 24° 91° (E) 03:47:59 436.925 FM
ITAMSAT 1 01 Oct 03:47:05 03:52:18 61° 102° (ESE) 03:57:28 435.822 SSB
Uribyol 2 01 Oct 03:47:59 03:53:13 66° 103° (ESE) 03:58:25 436.500 FM
Oscar 16 01 Oct 04:16:59 04:21:45 38° 296° (WNW) 04:26:28 437.025 USB, Beacon 2401.1428
SO-50 01 Oct 04:18:56 04:23:45 88° 229° (SW) 04:28:37 436.795 FM
AO-27 01 Oct 04:25:37 04:30:50 68° 289° (WNW) 04:36:01 436.795 MHz FM
AO-Echo 01 Oct 04:26:30 04:31:21 54° 291° (WNW) 04:36:20 ?
AO-7 01 Oct 04:41:49 04:48:22 25° 90° (E) 04:54:53 29.400 - 29.500 MHz
UOSAT-12 01 Oct 04:46:51 04:51:09 33° 33° (NNE) 04:55:24 437.025 FM, 437.400 FM
Gurwin Techsat 1B 01 Oct 04:50:08 04:55:29 79° 288° (WNW) 05:00:47 435.225 FM
ISS 01 Oct 05:04:55 05:07:48 27° 213° (SSW) 05:10:40 145.800 FM
OPAL 01 Oct 05:06:01 05:11:14 78° 70° (ENE) 05:16:28 ?
JAS-1B 01 Oct 05:11:25 05:16:22 32° 300° (WNW) 05:21:28 435.800 - 435.900 CW/SSB
Oscar 19 01 Oct 05:16:18 05:19:21 16° 307° (NW) 05:22:23 437.125 CW, 437.150 USB
MaSat-1 01 Oct 05:18:39 05:20:28 12° 102° (ESE) 05:22:16 437.345 MHz
TMSAT-1 01 Oct 05:18:53 05:24:08 62° 290° (WNW) 05:29:22 436.925 FM
KITSAT 1 01 Oct 05:21:31 05:24:21 12° 264° (W) 05:27:10 435.175 FM
ITAMSAT 1 01 Oct 05:27:13 05:31:26 25° 301° (WNW) 05:35:39 435.822 SSB
Uribyol 2 01 Oct 05:28:10 05:32:17 24° 302° (WNW) 05:36:24 436.500 FM
RS-15 01 Oct 05:35:53 05:46:39 59° 326° (NW) 05:57:33 29.354 - 29.394 USB, Beacon 29.352 USB
Uosat F 01 Oct 05:47:48 05:52:44 51° 100° (E) 05:57:38 435.120 FM
JAS-2 01 Oct 05:53:48 05:58:30 20° 88° (E) 06:03:32 435.800 - 435.900 CW/SSB, 435.910 FM
SO-50 01 Oct 06:00:42 06:03:42 17° 248° (WSW) 06:06:43 436.795 FM
AO-27 01 Oct 06:06:47 06:09:27 14° 310° (NW) 06:12:08 436.795 MHz FM
AO-Echo 01 Oct 06:07:54 06:09:09 11° 310° (NW) 06:10:25 ?
STRAND 1 01 Oct 06:08:49 06:13:02 27° 60° (ENE) 06:17:17 ?
UOSAT-12 01 Oct 06:26:56 06:31:38 62° 234° (SW) 06:36:14 437.025 FM, 437.400 FM
Gurwin Techsat 1B 01 Oct 06:31:27 06:34:40 16° 308° (NW) 06:37:52 435.225 FM
AO-7 01 Oct 06:33:52 06:42:13 88° 291° (WNW) 06:50:32 29.400 - 29.500 MHz
Hamsat 01 Oct 06:35:59 06:39:15 22° 91° (E) 06:42:29 145.90 MHz
OPAL 01 Oct 06:47:07 06:50:42 19° 269° (W) 06:54:18 ?
MaSat-1 01 Oct 06:51:29 06:56:18 74° 120° (ESE) 07:00:47 437.345 MHz
TMSAT-1 01 Oct 07:00:41 07:03:05 13° 311° (NW) 07:05:28 436.925 FM
Uosat F 01 Oct 07:27:02 07:31:18 28° 300° (WNW) 07:35:33 435.120 FM
JAS-2 01 Oct 07:37:47 07:44:17 87° 106° (ESE) 07:51:37 435.800 - 435.900 CW/SSB, 435.910 FM
STRAND 1 01 Oct 07:46:57 07:51:57 55° 259° (W) 07:57:00 ?
RS-15 01 Oct 07:51:29 08:01:36 40° 358° (N) 08:11:55 29.354 - 29.394 USB, Beacon 29.352 USB
UOSAT-12 01 Oct 08:10:14 08:10:50 10° 253° (WSW) 08:11:25 437.025 FM, 437.400 FM
Hamsat 01 Oct 08:11:25 08:15:28 46° 290° (WNW) 08:19:27 145.90 MHz
AO-7 01 Oct 08:27:22 08:34:07 29° 314° (NW) 08:40:51 29.400 - 29.500 MHz
MaSat-1 01 Oct 08:29:24 08:33:11 23° 318° (NW) 08:36:44 437.345 MHz
SO-67 01 Oct 08:42:14 08:45:42 68° 102° (ESE) 08:49:08 435.3500 MHz FM
HO-68 01 Oct 08:52:50 08:56:14 14° 82° (E) 08:59:37 435.675 MHz FM
PCSat 01 Oct 09:10:50 09:13:32 14° 103° (ESE) 09:16:14 145.825 MHz
JAS-2 01 Oct 09:23:48 09:28:48 25° 304° (NW) 09:34:14 435.800 - 435.900 CW/SSB, 435.910 FM
RS-15 01 Oct 10:05:56 10:16:43 55° 31° (NNE) 10:27:50 29.354 - 29.394 USB, Beacon 29.352 USB
SO-67 01 Oct 10:16:48 10:18:15 12° 300° (WNW) 10:19:41 435.3500 MHz FM
AO-7 01 Oct 10:21:43 10:24:14 12° 340° (NNW) 10:26:44 29.400 - 29.500 MHz
Sapphire 01 Oct 10:25:23 10:30:32 47° 117° (ESE) 10:35:43 437.095 MHz 1200 baud AX-25 AFSK
Oscar 11 01 Oct 10:29:49 10:33:14 22° 92° (E) 10:36:36 145.825 FM, Beacon 2401.500 USB
HO-68 01 Oct 10:38:15 10:45:25 64° 103° (ESE) 10:52:33 435.675 MHz FM
PCSat 01 Oct 10:50:38 10:56:02 74° 123° (ESE) 11:01:28 145.825 MHz
FUNcube-1 01 Oct 10:54:53 10:58:09 19° 89° (E) 11:01:22 145.950 - 145.970 MHz USB
UKube-1 01 Oct 10:59:03 11:03:18 48° 100° (E) 11:07:32 145.840 MHz, 145.915 MHz
ZACube-1 01 Oct 11:39:24 11:43:52 47° 99° (E) 11:48:12 437.345 MHz
Oscar 11 01 Oct 12:05:29 12:09:40 47° 291° (WNW) 12:13:49 145.825 FM, Beacon 2401.500 USB
Sapphire 01 Oct 12:08:57 12:14:04 41° 319° (NW) 12:19:14 437.095 MHz 1200 baud AX-25 AFSK
RS-15 01 Oct 12:18:42 12:29:37 68° 238° (WSW) 12:40:58 29.354 - 29.394 USB, Beacon 29.352 USB
Oscar 16 01 Oct 12:22:41 12:25:59 17° 54° (NE) 12:29:17 437.025 USB, Beacon 2401.1428
JAS-1B 01 Oct 12:23:28 12:27:32 17° 50° (NE) 12:31:19 435.800 - 435.900 CW/SSB
HO-68 01 Oct 12:26:26 12:32:47 36° 305° (NW) 12:39:08 435.675 MHz FM
FUNcube-1 01 Oct 12:30:25 12:34:58 60° 289° (WNW) 12:39:23 145.950 - 145.970 MHz USB
AO-27 01 Oct 12:35:01 12:36:20 11° 47° (NE) 12:37:39 436.795 MHz FM
PCSat 01 Oct 12:35:13 12:39:59 30° 325° (NW) 12:44:46 145.825 MHz
UKube-1 01 Oct 12:35:46 12:39:16 24° 299° (WNW) 12:42:45 145.840 MHz, 145.915 MHz
ZACube-1 01 Oct 13:16:15 13:20:02 26° 298° (WNW) 13:23:44 437.345 MHz
Oscar 19 01 Oct 13:18:43 13:23:33 41° 65° (ENE) 13:28:24 437.125 CW, 437.150 USB
MaSat-1 01 Oct 13:26:54 13:28:16 12° 29° (NNE) 13:29:34 437.345 MHz
TMSAT-1 01 Oct 13:29:19 13:31:24 12° 48° (NE) 13:33:28 436.925 FM
ITAMSAT 1 01 Oct 13:32:05 13:36:22 27° 59° (ENE) 13:40:41 435.822 SSB
Uribyol 2 01 Oct 13:32:43 13:37:07 29° 60° (ENE) 13:41:32 436.500 FM
Sapphire 01 Oct 13:55:24 13:58:58 17° 343° (NNW) 14:02:33 437.095 MHz 1200 baud AX-25 AFSK
AO-7 01 Oct 13:57:35 14:02:51 19° 35° (NE) 14:08:07 29.400 - 29.500 MHz
Oscar 16 01 Oct 13:59:25 14:04:38 86° 73° (ENE) 14:09:52 437.025 USB, Beacon 2401.1428
AO-Echo 01 Oct 14:06:13 14:10:44 50° 68° (ENE) 14:15:21 ?
FUNcube-1 01 Oct 14:09:20 14:10:25 11° 309° (NW) 14:11:29 145.950 - 145.970 MHz USB
AO-27 01 Oct 14:09:43 14:14:43 51° 67° (ENE) 14:19:46 436.795 MHz FM
JAS-1B 01 Oct 14:10:11 14:17:24 71° 70° (ENE) 14:23:33 435.800 - 435.900 CW/SSB
HO-68 01 Oct 14:16:32 14:18:30 11° 328° (NNW) 14:20:28 435.675 MHz FM
PCSat 01 Oct 14:22:01 14:25:11 15° 351° (N) 14:28:21 145.825 MHz
RS-15 01 Oct 14:32:46 14:39:50 20° 262° (W) 14:47:06 29.354 - 29.394 USB, Beacon 29.352 USB
Gurwin Techsat 1B 01 Oct 14:36:55 14:41:57 45° 66° (ENE) 14:47:00 435.225 FM
Oscar 19 01 Oct 14:58:16 15:02:59 35° 264° (W) 15:07:44 437.125 CW, 437.150 USB
MaSat-1 01 Oct 15:02:04 15:05:42 57° 53° (NE) 15:08:48 437.345 MHz
TMSAT-1 01 Oct 15:05:06 15:10:16 57° 69° (ENE) 15:15:28 436.925 FM
ITAMSAT 1 01 Oct 15:10:29 15:15:34 56° 259° (W) 15:20:43 435.822 SSB
Uribyol 2 01 Oct 15:11:17 15:16:21 53° 260° (W) 15:21:28 436.500 FM
Saudisat 1A 01 Oct 15:14:25 15:18:43 57° 126° (SE) 15:23:04 436.775 MHz
